Weather History for McConnell AFB, KS

Change the Weather History Date:

Monday, January 13, 2014

  Actual Average Record
Temperature  
Mean Temperature 44 °F -  
Max Temperature 53 °F 41 °F 59 °F (2002)
Min Temperature 34 °F 23 °F 3 °F (2011)
Degree Days  
Heating Degree Days 22    
Moisture  
Dew Point 26 °F    
Average Humidity 54    
Maximum Humidity 85    
Minimum Humidity 26    
Precipitation  
Precipitation 0.00 in - - ()
Sea Level Pressure  
Sea Level Pressure 29.91 in    
Wind  
Wind Speed 9 mph (WNW)    
Max Wind Speed 16 mph    
Max Gust Speed 22 mph    
Visibility 10 miles    
Events      
Averages and records for this station are not official NWS values.
T = Trace of Precipitation, MM = Missing Value Source: NWS Daily Summary

Daily Weather History Graph

Daily Weather History Graph

Search for Another Location

Airport:

Trip Planner

Search our weather history database for the weather conditions in past years. The results will help you decide how hot, cold, wet, or windy it might be!

Date:

Astronomy

Jan. 13, 2014 Rise Set
Actual Time 7:43 AM CST 5:32 PM CST
Civil Twilight 7:14 AM CST 6:01 PM CST
Nautical Twilight 6:42 AM CST 6:33 PM CST
Astronomical Twilight 6:10 AM CST 7:04 PM CST
Moon 3:48 PM CST (1/13) 5:33 AM CST (1/13)
Length of Visible Light 10h 46m
Length of Day
9h 49m
Waxing Gibbous, 95% of the Moon is Illuminated
Jan 13
Waxing Gibbous
Jan 15
Full
Jan 23
Last Quarter
Jan 30
New
Feb 6
First Quarter

Hourly Weather History & Observations

Time (CST) Temp. Windchill Dew Point Humidity Pressure Visibility Wind Dir Wind Speed Gust Speed Precip Events Conditions
12:58 AM 42.4 °F 39.6 °F 36.0 °F 78% 29.75 in 10.0 mi NW 4.6 mph - N/A   Clear
1:58 AM 41.4 °F 36.2 °F 37.0 °F 85% 29.80 in 10.0 mi West 8.1 mph - N/A   Clear
2:58 AM 41.2 °F 35.5 °F 32.9 °F 72% 29.81 in 10.0 mi WNW 9.2 mph - N/A   Clear
3:58 AM 39.9 °F 31.4 °F 25.5 °F 56% 29.84 in 10.0 mi NW 16.1 mph 21.9 mph N/A   Clear
4:58 AM 37.8 °F 29.4 °F 27.1 °F 66% 29.85 in 10.0 mi NNW 13.8 mph - N/A   Clear
5:58 AM 37.8 °F 29.4 °F 29.7 °F 73% 29.89 in 10.0 mi NNW 13.8 mph - N/A   Clear
6:58 AM 36.3 °F 29.5 °F 30.6 °F 80% 29.92 in 10.0 mi NW 9.2 mph - N/A   Clear
7:58 AM 34.5 °F 27.9 °F 30.6 °F 85% 29.95 in 10.0 mi NW 8.1 mph - N/A   Clear
8:58 AM 36.9 °F 29.6 °F 29.3 °F 74% 29.98 in 10.0 mi NNW 10.4 mph - N/A   Clear
9:58 AM 41.2 °F 34.5 °F 28.2 °F 60% 29.99 in 10.0 mi NNW 11.5 mph - N/A   Clear
10:58 AM 45.1 °F 39.1 °F 27.5 °F 50% 30.00 in 10.0 mi NNW 12.7 mph - N/A   Clear
11:58 AM 47.7 °F - 27.9 °F 46% 29.99 in 10.0 mi West 10.4 mph - N/A   Clear
12:58 PM 49.3 °F - 28.2 °F 44% 29.96 in 10.0 mi NW 9.2 mph - N/A   Clear
1:58 PM 51.1 °F - 26.2 °F 38% 29.93 in 10.0 mi West 10.4 mph - N/A   Clear
2:58 PM 52.5 °F - 24.6 °F 34% 29.93 in 10.0 mi West 10.4 mph - N/A   Clear
3:58 PM 53.2 °F - 19.6 °F 27% 29.92 in 10.0 mi West 10.4 mph - N/A   Clear
4:58 PM 52.2 °F - 18.3 °F 26% 29.92 in 10.0 mi West 6.9 mph - N/A   Clear
5:58 PM 46.6 °F - 20.3 °F 35% 29.92 in 10.0 mi WSW 5.8 mph - N/A   Clear
6:58 PM 42.3 °F 37.9 °F 21.4 °F 43% 29.91 in 10.0 mi SSW 6.9 mph - N/A   Clear
7:58 PM 39.2 °F 33.0 °F 21.9 °F 50% 29.91 in 10.0 mi SSW 9.2 mph - N/A   Clear
8:58 PM 41.5 °F 37.1 °F 19.9 °F 42% 29.90 in 10.0 mi SW 6.9 mph - N/A   Clear
9:58 PM 40.8 °F 36.2 °F 18.7 °F 41% 29.90 in 10.0 mi SW 6.9 mph - N/A   Clear
10:58 PM 38.1 °F 33.7 °F 19.9 °F 48% 29.90 in 10.0 mi SSW 5.8 mph - N/A   Clear
11:58 PM 35.4 °F 30.5 °F 20.5 °F 55% 29.88 in 10.0 mi SW 5.8 mph - N/A   Clear